| time (UTC) | temp F | wind direction | speed MPH | gust MPH | rain 1hr in | rain 24hr in | rain mn in | humidity % | barometer mb |
| 20260505230516 | 76 | 135 | 1.0 | 5.0 | 0.00 | 0.00 | 0.00 | 46 | 1022.4 |
| 20260505230016 | 77 | 113 | 1.0 | 5.0 | 0.00 | 0.00 | 0.00 | 46 | 1022.3 |
| 20260505225516 | 77 | 113 | 1.0 | 8.0 | 0.00 | 0.00 | 0.00 | 46 | 1022.4 |
| 20260505225036 | 77 | 113 | 1.0 | 8.0 | 0.00 | 0.00 | 0.00 | 45 | 1022.3 |
| 20260505224536 | 77 | 135 | 1.0 | 7.0 | 0.00 | 0.00 | 0.00 | 45 | 1022.4 |
| 20260505224016 | 77 | 113 | 1.0 | 7.0 | 0.00 | 0.00 | 0.00 | 44 | 1022.4 |
| 20260505223536 | 77 | 135 | 2.0 | 7.0 | 0.00 | 0.00 | 0.00 | 44 | 1022.2 |
| 20260505223016 | 78 | 113 | 2.0 | 9.0 | 0.00 | 0.00 | 0.00 | 44 | 1022.6 |
| 20260505222516 | 78 | 158 | 1.0 | 7.0 | 0.00 | 0.00 | 0.00 | 44 | 1022.5 |
| 20260505222016 | 78 | 113 | 2.0 | 7.0 | 0.00 | 0.00 | 0.00 | 43 | 1022.4 |
| 20260505221516 | 78 | 135 | 2.0 | 8.0 | 0.00 | 0.00 | 0.00 | 43 | 1022.3 |
| 20260505221016 | 78 | 338 | 1.0 | 8.0 | 0.00 | 0.00 | 0.00 | 42 | 1022.3 |
| 20260505220516 | 79 | 135 | 2.0 | 7.0 | 0.00 | 0.00 | 0.00 | 42 | 1022.2 |
| 20260505220016 | 79 | 135 | 1.0 | 3.0 | 0.00 | 0.00 | 0.00 | 43 | 1022.3 |
| 20260505215516 | 79 | 135 | 1.0 | 8.0 | 0.00 | 0.00 | 0.00 | 42 | 1022.3 |
| 20260505215016 | 79 | 135 | 3.0 | 13.0 | 0.00 | 0.00 | 0.00 | 42 | 1022.2 |
| 20260505214516 | 79 | 113 | 1.0 | 6.0 | 0.00 | 0.00 | 0.00 | 41 | 1022.2 |
| 20260505214016 | 79 | 135 | 3.0 | 7.0 | 0.00 | 0.00 | 0.00 | 41 | 1022.2 |
| 20260505213516 | 79 | 135 | 2.0 | 13.0 | 0.00 | 0.00 | 0.00 | 41 | 1022.2 |
| 20260505213016 | 79 | 135 | 3.0 | 12.0 | 0.00 | 0.00 | 0.00 | 41 | 1022.2 |
| 20260505212516 | 79 | 0.0 | 2.0 | 0.00 | 0.00 | 0.00 | 42 | 1022.2 | |
| 20260505212016 | 79 | 203 | 1.0 | 7.0 | 0.00 | 0.00 | 0.00 | 39 | 1022.5 |
| 20260505211516 | 79 | 0.0 | 3.0 | 0.00 | 0.00 | 0.00 | 39 | 1022.5 | |
| 20260505211016 | 79 | 113 | 1.0 | 3.0 | 0.00 | 0.00 | 0.00 | 39 | 1022.4 |
| 20260505210516 | 79 | 0.0 | 4.0 | 0.00 | 0.00 | 0.00 | 39 | 1022.4 | |
| 20260505210016 | 80 | 113 | 1.0 | 6.0 | 0.00 | 0.00 | 0.00 | 37 | 1022.5 |
| 20260505205556 | 80 | 0 | 1.0 | 6.0 | 0.00 | 0.00 | 0.00 | 37 | 1022.5 |
| 20260505205016 | 80 | 293 | 1.0 | 4.0 | 0.00 | 0.00 | 0.00 | 36 | 1022.3 |
| 20260505204516 | 80 | 113 | 1.0 | 6.0 | 0.00 | 0.00 | 0.00 | 37 | 1022.3 |
| 20260505204016 | 80 | 90 | 1.0 | 9.0 | 0.00 | 0.00 | 0.00 | 36 | 1022.4 |
| 20260505203536 | 81 | 135 | 1.0 | 5.0 | 0.00 | 0.00 | 0.00 | 35 | 1022.3 |
| 20260505203016 | 81 | 113 | 1.0 | 4.0 | 0.00 | 0.00 | 0.00 | 37 | 1022.2 |
| 20260505202536 | 81 | 0.0 | 2.0 | 0.00 | 0.00 | 0.00 | 37 | 1022.4 | |
| 20260505202016 | 81 | 0 | 1.0 | 4.0 | 0.00 | 0.00 | 0.00 | 34 | 1022.4 |
| 20260505201516 | 81 | 315 | 1.0 | 6.0 | 0.00 | 0.00 | 0.00 | 36 | 1022.5 |
| 20260505201016 | 81 | 338 | 1.0 | 4.0 | 0.00 | 0.00 | 0.00 | 35 | 1022.5 |
| 20260505200516 | 81 | 113 | 2.0 | 5.0 | 0.00 | 0.00 | 0.00 | 32 | 1022.5 |
| 20260505200016 | 81 | 135 | 1.0 | 7.0 | 0.00 | 0.00 | 0.00 | 33 | 1022.6 |
| 20260505195516 | 81 | 0 | 1.0 | 4.0 | 0.00 | 0.00 | 0.00 | 35 | 1022.8 |
| 20260505195016 | 81 | 0 | 2.0 | 6.0 | 0.00 | 0.00 | 0.00 | 33 | 1022.7 |
| 20260505194516 | 81 | 293 | 2.0 | 9.0 | 0.00 | 0.00 | 0.00 | 33 | 1022.7 |
| 20260505194016 | 82 | 293 | 2.0 | 8.0 | 0.00 | 0.00 | 0.00 | 33 | 1022.9 |
| 20260505193516 | 82 | 0 | 1.0 | 7.0 | 0.00 | 0.00 | 0.00 | 33 | 1022.9 |
| 20260505193016 | 82 | 338 | 2.0 | 8.0 | 0.00 | 0.00 | 0.00 | 32 | 1023.0 |
| 20260505192536 | 82 | 158 | 2.0 | 9.0 | 0.00 | 0.00 | 0.00 | 31 | 1023.0 |
| 20260505192036 | 82 | 113 | 1.0 | 5.0 | 0.00 | 0.00 | 0.00 | 33 | 1023.1 |
| 20260505191516 | 82 | 113 | 1.0 | 6.0 | 0.00 | 0.00 | 0.00 | 34 | 1023.2 |
| 20260505191036 | 82 | 135 | 1.0 | 2.0 | 0.00 | 0.00 | 0.00 | 34 | 1023.2 |
| 20260505190516 | 82 | 135 | 1.0 | 8.0 | 0.00 | 0.00 | 0.00 | 34 | 1023.2 |
| 20260505190036 | 82 | 135 | 2.0 | 5.0 | 0.00 | 0.00 | 0.00 | 35 | 1023.5 |
| 20260505185516 | 82 | 135 | 2.0 | 8.0 | 0.00 | 0.00 | 0.00 | 34 | 1023.6 |
| 20260505185016 | 82 | 113 | 2.0 | 8.0 | 0.00 | 0.00 | 0.00 | 36 | 1023.5 |
| 20260505184516 | 82 | 135 | 3.0 | 10.0 | 0.00 | 0.00 | 0.00 | 33 | 1023.6 |
| 20260505184036 | 81 | 135 | 3.0 | 9.0 | 0.00 | 0.00 | 0.00 | 34 | 1023.7 |
| 20260505183516 | 81 | 135 | 2.0 | 13.0 | 0.00 | 0.00 | 0.00 | 34 | 1023.6 |
| 20260505183016 | 81 | 315 | 2.0 | 13.0 | 0.00 | 0.00 | 0.00 | 35 | 1023.7 |
| 20260505182536 | 81 | 248 | 1.0 | 11.0 | 0.00 | 0.00 | 0.00 | 37 | 1023.8 |
| 20260505182036 | 81 | 135 | 3.0 | 10.0 | 0.00 | 0.00 | 0.00 | 34 | 1023.8 |
| 20260505181516 | 81 | 338 | 1.0 | 8.0 | 0.00 | 0.00 | 0.00 | 34 | 1023.8 |
| 20260505181016 | 82 | 270 | 1.0 | 11.0 | 0.00 | 0.00 | 0.00 | 36 | 1023.8 |
| 20260505180536 | 82 | 113 | 1.0 | 6.0 | 0.00 | 0.00 | 0.00 | 35 | 1024.1 |
| 20260505180016 | 82 | 113 | 2.0 | 7.0 | 0.00 | 0.00 | 0.00 | 34 | 1024.0 |
| 20260505175516 | 82 | 315 | 2.0 | 8.0 | 0.00 | 0.00 | 0.00 | 35 | 1024.2 |
| 20260505175016 | 82 | 113 | 2.0 | 10.0 | 0.00 | 0.00 | 0.00 | 35 | 1024.2 |
| 20260505174516 | 81 | 248 | 1.0 | 3.0 | 0.00 | 0.00 | 0.00 | 33 | 1024.2 |
| 20260505174016 | 81 | 270 | 1.0 | 6.0 | 0.00 | 0.00 | 0.00 | 34 | 1024.2 |
| 20260505173516 | 81 | 293 | 1.0 | 7.0 | 0.00 | 0.00 | 0.00 | 35 | 1024.3 |
| 20260505173016 | 81 | 293 | 2.0 | 10.0 | 0.00 | 0.00 | 0.00 | 33 | 1024.3 |
| 20260505172516 | 81 | 135 | 2.0 | 9.0 | 0.00 | 0.00 | 0.00 | 40 | 1024.4 |
| 20260505172016 | 80 | 0.0 | 2.0 | 0.00 | 0.00 | 0.00 | 37 | 1024.3 | |
| 20260505171516 | 81 | 315 | 1.0 | 11.0 | 0.00 | 0.00 | 0.00 | 35 | 1024.5 |
| 20260505171016 | 81 | 135 | 2.0 | 8.0 | 0.00 | 0.00 | 0.00 | 37 | 1024.6 |
| 20260505170516 | 81 | 135 | 2.0 | 10.0 | 0.00 | 0.00 | 0.00 | 38 | 1024.8 |
| 20260505170016 | 81 | 338 | 1.0 | 9.0 | 0.00 | 0.00 | 0.00 | 38 | 1024.7 |
| 20260505165516 | 81 | 135 | 1.0 | 9.0 | 0.00 | 0.00 | 0.00 | 40 | 1024.7 |
| 20260505165016 | 81 | 113 | 1.0 | 7.0 | 0.00 | 0.00 | 0.00 | 44 | 1024.8 |
| 20260505164516 | 80 | 293 | 1.0 | 3.0 | 0.00 | 0.00 | 0.00 | 43 | 1024.8 |
| 20260505164016 | 81 | 135 | 1.0 | 3.0 | 0.00 | 0.00 | 0.00 | 40 | 1024.9 |
| 20260505163516 | 80 | 135 | 3.0 | 6.0 | 0.00 | 0.00 | 0.00 | 46 | 1024.9 |
| 20260505163016 | 80 | 135 | 1.0 | 6.0 | 0.00 | 0.00 | 0.00 | 42 | 1025.1 |
| 20260505162536 | 80 | 293 | 1.0 | 5.0 | 0.00 | 0.00 | 0.00 | 47 | 1025.1 |
| 20260505162015 | 80 | 270 | 1.0 | 3.0 | 0.00 | 0.00 | 0.00 | 48 | 1025.2 |
| 20260505161536 | 80 | 135 | 1.0 | 4.0 | 0.00 | 0.00 | 0.00 | 46 | 1025.4 |
| 20260505161036 | 80 | 113 | 2.0 | 5.0 | 0.00 | 0.00 | 0.00 | 45 | 1025.4 |
| 20260505160516 | 80 | 135 | 2.0 | 5.0 | 0.00 | 0.00 | 0.00 | 46 | 1025.4 |
| 20260505153016 | 78 | 0.0 | 1.0 | 0.00 | 0.00 | 0.00 | 48 | 1025.8 | |
| 20260505152516 | 78 | 0.0 | 2.0 | 0.00 | 0.00 | 0.00 | 48 | 1025.8 | |
| 20260505152015 | 77 | 113 | 1.0 | 7.0 | 0.00 | 0.00 | 0.00 | 48 | 1025.8 |
| 20260505151516 | 77 | 0.0 | 2.0 | 0.00 | 0.00 | 0.00 | 50 | 1025.8 | |
| 20260505151016 | 76 | 315 | 1.0 | 3.0 | 0.00 | 0.00 | 0.00 | 53 | 1025.6 |
| 20260505150516 | 76 | 293 | 1.0 | 2.0 | 0.00 | 0.00 | 0.00 | 51 | 1025.6 |
| 20260505140516 | 72 | 0.0 | 2.0 | 0.00 | 0.00 | 0.00 | 55 | 1025.4 | |
| 20260505125016 | 65 | 0.0 | 4.0 | 0.00 | 0.00 | 0.00 | 72 | 1025.5 | |
| 20260505124516 | 64 | 0.0 | 1.0 | 0.00 | 0.00 | 0.00 | 73 | 1025.5 | |
| 20260505124016 | 63 | 0.0 | 2.0 | 0.00 | 0.00 | 0.00 | 74 | 1025.5 | |
| 20260505123516 | 62 | 0.0 | 1.0 | 0.00 | 0.00 | 0.00 | 75 | 1025.6 | |
| 20260505123016 | 62 | 0.0 | 1.0 | 0.00 | 0.00 | 0.00 | 76 | 1025.5 | |
| 20260505122516 | 61 | 0.0 | 1.0 | 0.00 | 0.00 | 0.00 | 77 | 1025.5 | |
| 20260505122016 | 61 | 0.0 | 0.0 | 0.00 | 0.00 | 0.00 | 77 | 1025.3 | |
| 20260505121516 | 60 | 0.0 | 1.0 | 0.00 | 0.00 | 0.00 | 78 | 1025.4 | |
| 20260505121015 | 60 | 0.0 | 1.0 | 0.00 | 0.00 | 0.00 | 78 | 1025.3 | |
| 20260505120515 | 60 | 0.0 | 1.0 | 0.00 | 0.00 | 0.00 | 79 | 1025.2 | |
| 20260505120015 | 59 | 0.0 | 1.0 | 0.00 | 0.00 | 0.00 | 79 | 1025.2 | |
| 20260505115516 | 59 | 0.0 | 1.0 | 0.00 | 0.00 | 0.00 | 79 | 1025.2 | |
| 20260505115036 | 58 | 0.0 | 1.0 | 0.00 | 0.00 | 0.00 | 80 | 1025.1 | |
| 20260505114536 | 58 | 0.0 | 1.0 | 0.00 | 0.00 | 0.00 | 81 | 1025.1 | |
| 20260505114036 | 57 | 0.0 | 1.0 | 0.00 | 0.00 | 0.00 | 82 | 1025.1 | |
| 20260505113515 | 57 | 0.0 | 1.0 | 0.00 | 0.00 | 0.00 | 83 | 1025.1 | |
| 20260505113017 | 57 | 0.0 | 3.0 | 0.00 | 0.00 | 0.00 | 83 | 1025.0 | |
| 20260505112516 | 56 | 0.0 | 1.0 | 0.00 | 0.00 | 0.00 | 84 | 1025.0 | |
| 20260505112016 | 56 | 0.0 | 1.0 | 0.00 | 0.00 | 0.00 | 85 | 1024.9 | |
| 20260505111515 | 55 | 0.0 | 1.0 | 0.00 | 0.00 | 0.00 | 85 | 1024.8 | |
| 20260505111016 | 55 | 0.0 | 1.0 | 0.00 | 0.00 | 0.00 | 86 | 1024.8 | |
| 20260505110515 | 55 | 0.0 | 1.0 | 0.00 | 0.00 | 0.00 | 86 | 1024.9 | |
| 20260505102056 | 54 | 0.0 | 0.0 | 0.00 | 0.00 | 0.00 | 86 | 1024.6 | |
| 20260505101516 | 54 | 0.0 | 0.0 | 0.00 | 0.00 | 0.00 | 85 | 1024.6 | |
| 20260505101016 | 54 | 0.0 | 0.0 | 0.00 | 0.00 | 0.00 | 85 | 1024.7 | |
| 20260505100516 | 54 | 0.0 | 0.0 | 0.00 | 0.00 | 0.00 | 85 | 1024.6 | |
| 20260505100015 | 54 | 0.0 | 0.0 | 0.00 | 0.00 | 0.00 | 84 | 1024.7 | |
| 20260505095515 | 55 | 0.0 | 0.0 | 0.00 | 0.00 | 0.00 | 84 | 1024.7 | |
| 20260505095015 | 55 | 0.0 | 0.0 | 0.00 | 0.00 | 0.00 | 83 | 1024.7 | |
| 20260505094516 | 55 | 0.0 | 0.0 | 0.00 | 0.00 | 0.00 | 83 | 1024.7 | |
| 20260505094015 | 55 | 0.0 | 0.0 | 0.00 | 0.00 | 0.00 | 82 | 1024.6 | |
| 20260505093515 | 55 | 0.0 | 0.0 | 0.00 | 0.00 | 0.00 | 82 | 1024.6 | |
| 20260505093035 | 56 | 0.0 | 0.0 | 0.00 | 0.00 | 0.00 | 82 | 1024.6 | |
| 20260505092516 | 56 | 0.0 | 0.0 | 0.00 | 0.00 | 0.00 | 82 | 1024.5 | |
| 20260505092036 | 56 | 0.0 | 0.0 | 0.00 | 0.00 | 0.00 | 82 | 1024.6 | |
| 20260505091515 | 56 | 0.0 | 0.0 | 0.00 | 0.00 | 0.00 | 81 | 1024.5 | |
| 20260505091015 | 56 | 0.0 | 0.0 | 0.00 | 0.00 | 0.00 | 81 | 1024.6 | |
| 20260505090515 | 56 | 0.0 | 0.0 | 0.00 | 0.00 | 0.00 | 80 | 1024.6 | |
| 20260505090016 | 57 | 0.0 | 0.0 | 0.00 | 0.00 | 0.00 | 79 | 1024.4 | |
| 20260505085515 | 57 | 0.0 | 0.0 | 0.00 | 0.00 | 0.00 | 79 | 1024.5 | |
| 20260505085015 | 57 | 0.0 | 0.0 | 0.00 | 0.00 | 0.00 | 79 | 1024.5 | |
| 20260505084515 | 57 | 0.0 | 0.0 | 0.00 | 0.00 | 0.00 | 79 | 1024.6 | |
| 20260505084015 | 58 | 0.0 | 0.0 | 0.00 | 0.00 | 0.00 | 78 | 1024.6 | |
| 20260505083516 | 58 | 0.0 | 0.0 | 0.00 | 0.00 | 0.00 | 78 | 1024.5 | |
| 20260505083015 | 58 | 0.0 | 0.0 | 0.00 | 0.00 | 0.00 | 78 | 1024.6 | |
| 20260505082515 | 58 | 0.0 | 0.0 | 0.00 | 0.00 | 0.00 | 77 | 1024.5 | |
| 20260505082016 | 58 | 0.0 | 0.0 | 0.00 | 0.00 | 0.00 | 77 | 1024.5 | |
| 20260505081515 | 59 | 0.0 | 0.0 | 0.00 | 0.00 | 0.00 | 76 | 1024.5 | |
| 20260505081016 | 59 | 0.0 | 1.0 | 0.00 | 0.00 | 0.00 | 76 | 1024.6 | |
| 20260505080515 | 59 | 0.0 | 0.0 | 0.00 | 0.00 | 0.00 | 75 | 1024.6 | |
| 20260505080036 | 59 | 0.0 | 1.0 | 0.00 | 0.00 | 0.00 | 75 | 1024.7 | |
| 20260505075516 | 59 | 0.0 | 0.0 | 0.00 | 0.00 | 0.00 | 75 | 1024.6 | |
| 20260505075015 | 59 | 0.0 | 1.0 | 0.00 | 0.00 | 0.00 | 74 | 1024.6 | |
| 20260505074516 | 59 | 0.0 | 1.0 | 0.00 | 0.00 | 0.00 | 74 | 1024.6 | |
| 20260505074035 | 59 | 0.0 | 1.0 | 0.00 | 0.00 | 0.00 | 74 | 1024.6 | |
| 20260505073516 | 59 | 0.0 | 0.0 | 0.00 | 0.00 | 0.00 | 74 | 1024.5 | |
| 20260505073015 | 60 | 0.0 | 1.0 | 0.00 | 0.00 | 0.00 | 73 | 1024.5 | |
| 20260505072515 | 60 | 0.0 | 3.0 | 0.00 | 0.00 | 0.00 | 73 | 1024.4 | |
| 20260505072015 | 60 | 0.0 | 3.0 | 0.00 | 0.00 | 0.00 | 73 | 1024.4 | |
| 20260505071556 | 60 | 0.0 | 0.0 | 0.00 | 0.00 | 0.00 | 73 | 1024.4 | |
| 20260505071036 | 60 | 0.0 | 1.0 | 0.00 | 0.00 | 0.00 | 73 | 1024.3 | |
| 20260505070515 | 60 | 0.0 | 1.0 | 0.00 | 0.00 | 0.00 | 73 | 1024.2 | |
| 20260505070016 | 60 | 0.0 | 1.0 | 0.00 | 0.00 | 0.00 | 72 | 1024.3 | |
| 20260505065516 | 60 | 0.0 | 3.0 | 0.00 | 0.00 | 0.00 | 72 | 1024.2 | |
| 20260505065036 | 60 | 0.0 | 1.0 | 0.00 | 0.00 | 0.00 | 72 | 1024.3 | |
| 20260505064516 | 60 | 0.0 | 2.0 | 0.00 | 0.00 | 0.00 | 72 | 1024.2 | |
| 20260505064035 | 60 | 0.0 | 2.0 | 0.00 | 0.00 | 0.00 | 72 | 1024.2 | |
| 20260505063515 | 59 | 0.0 | 5.0 | 0.00 | 0.00 | 0.00 | 72 | 1024.1 | |
| 20260505063016 | 59 | 0.0 | 1.0 | 0.00 | 0.00 | 0.00 | 72 | 1024.0 | |
| 20260505062515 | 59 | 0.0 | 3.0 | 0.00 | 0.00 | 0.00 | 72 | 1024.0 | |
| 20260505062015 | 59 | 0.0 | 2.0 | 0.00 | 0.00 | 0.00 | 71 | 1024.0 | |
| 20260505061516 | 59 | 0.0 | 1.0 | 0.00 | 0.00 | 0.00 | 70 | 1024.1 | |
| 20260505061015 | 60 | 0.0 | 0.0 | 0.00 | 0.00 | 0.00 | 69 | 1024.1 | |
| 20260505060535 | 60 | 0.0 | 1.0 | 0.00 | 0.00 | 0.00 | 69 | 1024.1 | |
| 20260505060016 | 60 | 0.0 | 1.0 | 0.00 | 0.00 | 0.00 | 68 | 1024.1 | |
| 20260505055516 | 60 | 0.0 | 1.0 | 0.00 | 0.00 | 0.00 | 67 | 1024.2 | |
| 20260505055015 | 60 | 0.0 | 2.0 | 0.00 | 0.00 | 0.00 | 67 | 1024.2 | |
| 20260505054515 | 60 | 0.0 | 1.0 | 0.00 | 0.00 | 0.00 | 67 | 1024.2 | |
| 20260505054015 | 60 | 0.0 | 3.0 | 0.00 | 0.00 | 0.00 | 66 | 1024.3 | |
| 20260505053515 | 61 | 0.0 | 5.0 | 0.00 | 0.00 | 0.00 | 66 | 1024.2 | |
| 20260505053035 | 61 | 0.0 | 2.0 | 0.00 | 0.00 | 0.00 | 65 | 1024.3 | |
| 20260505052515 | 61 | 0.0 | 1.0 | 0.00 | 0.00 | 0.00 | 64 | 1024.1 | |
| 20260505052015 | 61 | 0.0 | 0.0 | 0.00 | 0.00 | 0.00 | 63 | 1024.2 | |
| 20260505051515 | 61 | 0.0 | 2.0 | 0.00 | 0.00 | 0.00 | 63 | 1024.3 | |
| 20260505051015 | 62 | 0.0 | 2.0 | 0.00 | 0.00 | 0.00 | 62 | 1024.3 | |
| 20260505050536 | 62 | 0.0 | 2.0 | 0.00 | 0.00 | 0.00 | 61 | 1024.2 | |
| 20260505041515 | 60 | 0.0 | 1.0 | 0.00 | 0.00 | 0.00 | 65 | 1024.0 | |
| 20260505041015 | 60 | 0.0 | 1.0 | 0.00 | 0.00 | 0.00 | 65 | 1023.8 | |
| 20260505040516 | 60 | 0.0 | 1.0 | 0.00 | 0.00 | 0.00 | 67 | 1023.9 | |
| 20260505040015 | 60 | 0.0 | 3.0 | 0.00 | 0.00 | 0.00 | 67 | 1023.9 | |
| 20260505035516 | 59 | 0.0 | 0.0 | 0.00 | 0.00 | 0.00 | 69 | 1023.8 | |
| 20260505035016 | 59 | 0.0 | 0.0 | 0.00 | 0.00 | 0.00 | 68 | 1023.8 | |
| 20260505034536 | 59 | 0.0 | 0.0 | 0.00 | 0.00 | 0.00 | 69 | 1023.7 | |
| 20260505034016 | 59 | 0.0 | 1.0 | 0.00 | 0.00 | 0.00 | 70 | 1023.7 | |
| 20260505033516 | 59 | 0.0 | 0.0 | 0.00 | 0.00 | 0.00 | 69 | 1023.6 | |
| 20260505033036 | 59 | 0.0 | 1.0 | 0.00 | 0.00 | 0.00 | 70 | 1023.6 | |
| 20260505032516 | 59 | 0.0 | 0.0 | 0.00 | 0.00 | 0.00 | 69 | 1023.6 | |
| 20260505032016 | 59 | 0.0 | 0.0 | 0.00 | 0.00 | 0.00 | 69 | 1023.7 | |
| 20260505031516 | 59 | 0.0 | 0.0 | 0.00 | 0.00 | 0.00 | 69 | 1023.6 | |
| 20260505031016 | 59 | 0.0 | 0.0 | 0.00 | 0.00 | 0.00 | 70 | 1023.5 | |
| 20260505030516 | 59 | 0.0 | 0.0 | 0.00 | 0.00 | 0.00 | 69 | 1023.6 | |
| 20260505030016 | 60 | 0.0 | 0.0 | 0.00 | 0.00 | 0.00 | 69 | 1023.6 | |
| 20260505025516 | 60 | 0.0 | 0.0 | 0.00 | 0.00 | 0.00 | 68 | 1023.7 | |
| 20260505025017 | 60 | 0.0 | 0.0 | 0.00 | 0.00 | 0.00 | 68 | 1023.6 | |
| 20260505024516 | 60 | 0.0 | 0.0 | 0.00 | 0.00 | 0.00 | 67 | 1023.6 | |
| 20260505024016 | 60 | 0.0 | 0.0 | 0.00 | 0.00 | 0.00 | 67 | 1023.7 | |
| 20260505023516 | 60 | 0.0 | 0.0 | 0.00 | 0.00 | 0.00 | 67 | 1023.6 | |
| 20260505023016 | 61 | 0.0 | 0.0 | 0.00 | 0.00 | 0.00 | 66 | 1023.6 | |
| 20260505022516 | 61 | 0.0 | 0.0 | 0.00 | 0.00 | 0.00 | 66 | 1023.5 | |
| 20260505022016 | 61 | 0.0 | 0.0 | 0.00 | 0.00 | 0.00 | 66 | 1023.4 | |
| 20260505021516 | 61 | 0.0 | 0.0 | 0.00 | 0.00 | 0.00 | 66 | 1023.5 | |
| 20260505021016 | 62 | 0.0 | 0.0 | 0.00 | 0.00 | 0.00 | 66 | 1023.5 | |
| 20260505020516 | 62 | 0.0 | 0.0 | 0.00 | 0.00 | 0.00 | 65 | 1023.4 | |
| 20260505020016 | 62 | 0.0 | 0.0 | 0.00 | 0.00 | 0.00 | 65 | 1023.4 | |
| 20260505015516 | 62 | 0.0 | 0.0 | 0.00 | 0.00 | 0.00 | 65 | 1023.5 | |
| 20260505015016 | 62 | 0.0 | 0.0 | 0.00 | 0.00 | 0.00 | 65 | 1023.5 | |
| 20260505014616 | 62 | 0.0 | 0.0 | 0.00 | 0.00 | 0.00 | 65 | 1023.3 | |
| 20260505014016 | 63 | 0.0 | 0.0 | 0.00 | 0.00 | 0.00 | 64 | 1023.3 | |
| 20260505013516 | 63 | 0.0 | 0.0 | 0.00 | 0.00 | 0.00 | 64 | 1023.2 | |
| 20260505013016 | 63 | 0.0 | 0.0 | 0.00 | 0.00 | 0.00 | 64 | 1023.2 | |
| 20260505012516 | 63 | 0.0 | 0.0 | 0.00 | 0.00 | 0.00 | 64 | 1023.1 | |
| 20260505012016 | 63 | 0.0 | 0.0 | 0.00 | 0.00 | 0.00 | 63 | 1023.0 | |
| 20260505011516 | 63 | 0.0 | 0.0 | 0.00 | 0.00 | 0.00 | 62 | 1022.9 | |
| 20260505011036 | 63 | 0.0 | 1.0 | 0.00 | 0.00 | 0.00 | 62 | 1022.9 | |
| 20260505010536 | 63 | 0.0 | 0.0 | 0.00 | 0.00 | 0.00 | 62 | 1022.8 | |
| 20260505010056 | 63 | 0.0 | 0.0 | 0.00 | 0.00 | 0.00 | 61 | 1022.7 | |
| 20260505005536 | 64 | 0.0 | 0.0 | 0.00 | 0.00 | 0.00 | 61 | 1022.7 | |
| 20260505005016 | 64 | 0.0 | 0.0 | 0.00 | 0.00 | 0.00 | 60 | 1022.5 | |
| 20260505004516 | 64 | 0.0 | 1.0 | 0.00 | 0.00 | 0.00 | 60 | 1022.5 | |
| 20260505004016 | 64 | 0.0 | 1.0 | 0.00 | 0.00 | 0.00 | 60 | 1022.4 | |
| 20260505003516 | 64 | 0.0 | 0.0 | 0.00 | 0.00 | 0.00 | 59 | 1022.4 | |
| 20260505003016 | 64 | 0.0 | 1.0 | 0.00 | 0.00 | 0.00 | 59 | 1022.4 | |
| 20260505002536 | 65 | 0.0 | 1.0 | 0.00 | 0.00 | 0.00 | 57 | 1022.5 | |
| 20260505002036 | 65 | 0.0 | 0.0 | 0.00 | 0.00 | 0.00 | 55 | 1022.6 | |
| 20260505001516 | 66 | 0.0 | 0.0 | 0.00 | 0.00 | 0.00 | 54 | 1022.6 | |
| 20260505001016 | 66 | 0.0 | 0.0 | 0.00 | 0.00 | 0.00 | 52 | 1022.7 | |
| 20260505000516 | 67 | 0.0 | 0.0 | 0.00 | 0.00 | 0.00 | 51 | 1022.7 | |
| 20260505000036 | 67 | 0.0 | 0.0 | 0.00 | 0.00 | 0.00 | 50 | 1022.6 | |
| 20260504235516 | 68 | 0.0 | 4.0 | 0.00 | 0.00 | 0.00 | 49 | 1022.7 | |
| 20260504235016 | 68 | 0.0 | 0.0 | 0.00 | 0.00 | 0.00 | 48 | 1022.5 | |
| 20260504234516 | 69 | 0.0 | 0.0 | 0.00 | 0.00 | 0.00 | 47 | 1022.5 | |
| 20260504234036 | 69 | 0.0 | 0.0 | 0.00 | 0.00 | 0.00 | 46 | 1022.4 | |
| 20260504233516 | 70 | 0.0 | 0.0 | 0.00 | 0.00 | 0.00 | 45 | 1022.4 | |
| 20260504233016 | 70 | 0.0 | 0.0 | 0.00 | 0.00 | 0.00 | 44 | 1022.3 | |
| 20260504232536 | 70 | 0.0 | 0.0 | 0.00 | 0.00 | 0.00 | 45 | 1022.1 | |
| 20260504232016 | 71 | 0.0 | 0.0 | 0.00 | 0.00 | 0.00 | 43 | 1022.1 | |
| 20260504231516 | 71 | 0.0 | 1.0 | 0.00 | 0.00 | 0.00 | 43 | 1022.1 | |
| 20260504231016 | 71 | 0.0 | 1.0 | 0.00 | 0.00 | 0.00 | 43 | 1022.1 |